POLYTECH-UNIVERSE 3 (R*)

Last updated on Mon Sep 15 2025 00:03:09 GMT+0000 (Coordinated Universal Time)

1 57191U 23091AB 25257.24361365 .00004083 00000+0 21909-3 0 9997 2 57191 97.5482 311.8160 0016885 13.2996 346.8678 15.15396922122109
UTC large
Height (km)
Speed (km/s)
/
Latitude / Longitude
Inclination (degrees)
Orbital Period (minutes)
Azimuth
Elevation
Range (km)
Doppler Factor

Next 0 passes for location: London (51.5072 / 0.1276)

Sorry there are no passes over London.